Other Public Products
Issued by NWS Charleston, SC

Current Version | Previous Version | Graphics & Text | Print | Product List | Glossary On
Versions: 1 2 3 4 5 6 7 8 9 10 11 12 13 14 15 16 17 18 19 20 21 22 23 24 25 26 27 28 29 30 31 32 33 34 35 36 37 38 39 40 41 42 43 44 45 46 47 48 49 50
000
FPUS82 KCHS 191012
OPUCHS

TEST...KCHS/KSAV Gateway Observations...TEST
National Weather Service Charleston SC
600 AM EDT THU OCT 19 2017

NOTE: "fair" indicates few or no clouds below 12,000 feet with no
significant weather and/or obstructions to visibility.

SCZ050-WAZ558-NCZ071-TXZ119-213-PAZ071-DCZ001-FLZ074-172-MI076-
NYZ176-178-MAZ016-IL014-TNZ027-NJZ106-GAZ044-MD014-191100-

...Gateway Observations for Charleston International...

CITY           SKY/WX    TMP DP  RH WIND       PRES   REMARKS
Chas Airport   CLEAR     57  53  86 N7        30.22R
Seattle        RAIN      52  50  93 S14       29.63S FOG
Charlotte      CLEAR     40  40 100 CALM      30.30S
Dallas DFW     MOCLDY    61  50  67 S6        30.10S
Dallas Love    MOCLDY    63  51  65 S8        30.11S
Philladelphia  PTCLDY    52  48  86 S5        30.28S
Wash National  CLOUDY    49  47  93 SW6       30.28S
Baltimore      PTCLDY    42  42 100 CALM      30.27S
Miami          PTCLDY    76  74  93 CALM      29.98S
Detroit        CLEAR     53  44  71 SW15      30.07S
Newark         PTCLDY    51  46  83 SW6       30.26S
Laguardia      PTCLDY    58  46  64 SW7       30.25S
J F K          PTCLDY    54  50  86 SW8       30.27S
Boston Logan   CLEAR     53  50  89 S3        30.23F
Ft. Lauderdale PTCLDY    74  74 100 NW3       29.97S
Chicago O`Hare PTCLDY    54  46  74 W7        30.06R
Chicago Midway PTCLDY    55  48  77 VRB6      30.07R
Houston Bush   MOCLDY    63  62  97 CALM      30.10S
Houston Hobby  MOCLDY    70  63  78 CALM      30.09S
Nashville      PTCLDY    48  43  82 CALM      30.26R
Atlanta        PTCLDY    51  42  71 NE10      30.27S

$$

GAZ044-118-TXZ119-213-NCZ071-DCZ001-MDZ014-506-PAZ021-071-NJZ106-
NYZ176-178-MAZ106-OHZ011-021-055-MIZ076-KYZ091-ILZ014-INZ047-
MNZ060-ONZ431-191100-

...Gateway Observations for Savannah International...

CITY           SKY/WX    TMP DP  RH WIND       PRES   REMARKS
Savannah Arpt  PTCLDY    59  54  83 NE6       30.21R
Atlanta        PTCLDY    51  42  71 NE10      30.27S
Charlotte      CLEAR     40  40 100 CALM      30.30S
Dallas DFW     MOCLDY    61  50  67 S6        30.10S
Houston Bush   MOCLDY    63  62  97 CALM      30.10S
Wash National  CLOUDY    49  47  93 SW6       30.28S
Wash Dulles    CLOUDY    42  41  96 CALM      30.27S
Baltimore      PTCLDY    42  42 100 CALM      30.27S
Philadelphia   PTCLDY    52  48  86 S5        30.28S
Newark         PTCLDY    51  46  83 SW6       30.26S
Laguardia      PTCLDY    58  46  64 SW7       30.25S
J F K          PTCLDY    54  50  86 SW8       30.27S
Boston         CLEAR     53  50  89 S3        30.23F
Pittsburg      CLEAR     44  39  82 CALM      30.21R
Akron          CLEAR     48  40  73 SW8       30.18S
Cleveland      CLEAR     55  43  63 S10       30.16F
Cincinnati     CLEAR     47  45  93 S6        30.21S
Columbus       CLEAR     44  42  94 S6        30.21S
Detroit        CLEAR     53  44  71 SW15      30.07S
Chicago O`Hare PTCLDY    54  46  74 W7        30.06R
Minneapolis    CLOUDY    47  32  56 S5        30.04R
Indianapolis   PTCLDY    49  44  83 S6        30.17S
Toronto Canada PTCLDY    55  46  71 SW8       30.01F

$$




USA.gov is the U.S. government's official web portal to all federal, state and local government web resources and services.